Regional Weather Roundup
Issued by NWS Goodland, KS

Home | Current Version | Previous Version | Text Only | Print | Product List | Glossary Off
Versions: 1 2 3 4 5 6 7 8 9 10 11 12 13 14 15 16 17 18 19 20 21 22 23 24 25 26 27 28 29 30 31 32 33 34 35 36 37 38 39 40 41 42 43 44 45 46 47 48 49 50

000
ASUS43 KGLD 192108
RWRGLD

GOODLAND FORECAST AREA HOURLY WEATHER ROUNDUP
NATIONAL WEATHER SERVICE GOODLAND KS
300 PM MDT FRI SEP 19 2014

...OFFICIAL OBSERVATIONS...

CITY           SKY/WX    TMP DP  RH WIND       PRES   REMARKS
GOODLAND KS    MOSUNNY   88  56  33 S16G26    29.90F
HILL CITY KS   SUNNY     91  60  35 S21G26    29.86F
IMPERIAL NEB   SUNNY     93  50  23 S17G24    29.83F
MCCOOK NEB     SUNNY     92  56  29 S21G31    29.81F
AKRON CO       SUNNY     88  41  19 CALM      29.92F
BURLINGTON CO  SUNNY     87  51  28 SW14G24   29.92F
LIMON CO       SUNNY     87  37  17 MISG      29.98F
$$

...UNOFFICIAL OBSERVATIONS...

CITY           SKY/WX    TMP DP  RH WIND       PRES   REMARKS
COLBY KS       SUNNY     88  63  42 S16G26    29.89F
GOVE KS          N/A     89  32  13 MISG        N/A
NORTON KS      SUNNY     93  52  24 S20G26    29.84
SHARON SPRINGS   N/A     88  60  39 S20G26      N/A
WAKEENEY KS      N/A     90  52  27 MISG        N/A
TRENTON NEB      N/A     92  32  12 S17         N/A
KIT CARSON CO    N/A     86  50  28 N8          N/A
YUMA CO          N/A     91  44  19 CALM        N/A
$$



USA.gov is the U.S. government's official web portal to all federal, state and local government web resources and services.